Time,TemperatureF,DewpointF,PressureIn,WindDirection,WindDirectionDegrees,WindSpeedMPH,WindSpeedGustMPH,Humidity,HourlyPrecipIn,Conditions,Clouds,dailyrainin,SoftwareType,DateUTC
2013-01-10 00:00:00,48.1,42.5,30.20,SE,132,6.0,15.0,81,0.00,,-RA,0.03,VWS V14.01,2013-01-10 06:00:00,
2013-01-10 00:05:00,47.7,42.5,30.19,ESE,117,2.0,13.0,82,0.00,,-RA,0.00,VWS V14.01,2013-01-10 06:05:00,
2013-01-10 00:10:00,47.4,42.2,30.18,East,80,6.0,13.0,82,0.00,,-RA,0.00,VWS V14.01,2013-01-10 06:10:00,
2013-01-10 00:15:00,47.2,42.0,30.18,ENE,65,3.0,13.0,82,0.00,,-RA,0.00,VWS V14.01,2013-01-10 06:15:00,
2013-01-10 00:20:00,47.0,42.4,30.18,ESE,117,8.0,13.0,84,0.00,,-RA,0.00,VWS V14.01,2013-01-10 06:20:00,
2013-01-10 00:25:00,46.9,42.0,30.17,NE,38,4.0,13.0,83,0.00,,-RA,0.00,VWS V14.01,2013-01-10 06:25:00,
2013-01-10 00:30:00,46.4,40.9,30.16,East,100,1.0,13.0,81,0.01,,CLR,0.01,VWS V14.01,2013-01-10 06:30:00,
2013-01-10 00:31:00,46.7,42.1,30.17,East,82,2.0,9.0,84,0.00,,-RA,0.00,VWS V14.01,2013-01-10 06:31:00,
2013-01-10 00:36:00,46.6,42.0,30.16,ESE,122,3.0,15.0,84,0.00,,-RA,0.00,VWS V14.01,2013-01-10 06:36:00,
2013-01-10 00:41:00,46.5,41.9,30.16,ENE,78,5.0,15.0,84,0.00,,-RA,0.00,VWS V14.01,2013-01-10 06:41:00,
2013-01-10 00:46:00,46.5,41.6,30.16,ENE,66,1.0,15.0,83,0.00,,-RA,0.00,VWS V14.01,2013-01-10 06:46:00,
2013-01-10 00:51:00,46.5,41.9,30.16,ESE,106,4.0,15.0,84,0.00,,-RA,0.00,VWS V14.01,2013-01-10 06:51:00,
2013-01-10 00:56:00,46.4,41.5,30.16,East,89,3.0,15.0,83,0.01,,-RA,0.01,VWS V14.01,2013-01-10 06:56:00,
2013-01-10 01:00:00,45.6,40.1,30.16,ESE,115,2.0,15.0,81,0.01,,CLR,0.01,VWS V14.01,2013-01-10 07:00:00,
2013-01-10 01:01:00,46.5,41.9,30.15,East,84,8.0,10.0,84,0.01,,-RA,0.01,VWS V14.01,2013-01-10 07:01:00,
2013-01-10 01:06:00,46.4,41.5,30.16,East,80,7.0,10.0,83,0.01,,-RA,0.01,VWS V14.01,2013-01-10 07:06:00,
2013-01-10 01:11:00,46.4,41.2,30.17,ESE,112,2.0,13.0,82,0.01,,-RA,0.01,VWS V14.01,2013-01-10 07:11:00,
2013-01-10 01:16:00,46.4,41.5,30.17,East,82,2.0,13.0,83,0.01,,-RA,0.01,VWS V14.01,2013-01-10 07:16:00,
2013-01-10 01:21:00,46.4,41.2,30.17,East,82,2.0,13.0,82,0.01,,-RA,0.01,VWS V14.01,2013-01-10 07:21:00,
2013-01-10 01:26:00,46.3,41.1,30.16,ENE,71,4.0,13.0,82,0.01,,-RA,0.01,VWS V14.01,2013-01-10 07:26:00,
2013-01-10 01:30:00,44.3,41.0,30.15,ESE,109,7.0,19.0,88,0.00,,CLR,0.01,VWS V14.01,2013-01-10 07:30:00,
2013-01-10 01:32:00,46.3,41.1,30.16,ESE,105,2.0,5.0,82,0.01,,-RA,0.01,VWS V14.01,2013-01-10 07:32:00,
2013-01-10 01:37:00,46.3,41.4,30.16,ENE,78,3.0,10.0,83,0.01,,-RA,0.01,VWS V14.01,2013-01-10 07:37:00,
2013-01-10 01:42:00,46.0,40.8,30.16,East,87,13.0,15.0,82,0.01,,-RA,0.01,VWS V14.01,2013-01-10 07:42:00,
2013-01-10 01:47:00,45.8,40.6,30.17,East,85,7.0,15.0,82,0.01,,-RA,0.01,VWS V14.01,2013-01-10 07:47:00,
2013-01-10 01:52:00,45.7,40.5,30.16,SE,142,4.0,15.0,82,0.01,,-RA,0.01,VWS V14.01,2013-01-10 07:52:00,
2013-01-10 01:57:00,45.6,40.4,30.16,ENE,73,4.0,15.0,82,0.01,,-RA,0.01,VWS V14.01,2013-01-10 07:57:00,
2013-01-10 02:00:00,44.0,41.0,30.13,ESE,119,4.0,13.0,89,0.01,,CLR,0.02,VWS V14.01,2013-01-10 08:00:00,
2013-01-10 02:02:00,45.6,40.1,30.16,East,89,3.0,13.0,81,0.00,,-RA,0.01,VWS V14.01,2013-01-10 08:02:00,
2013-01-10 02:07:00,45.5,40.7,30.16,ESE,113,1.0,13.0,83,0.00,,-RA,0.01,VWS V14.01,2013-01-10 08:07:00,
2013-01-10 02:12:00,45.2,40.7,30.16,NE,51,5.0,19.0,84,0.00,,-RA,0.01,VWS V14.01,2013-01-10 08:12:00,
2013-01-10 02:17:00,45.0,41.1,30.15,ESE,115,7.0,19.0,86,0.00,,-RA,0.01,VWS V14.01,2013-01-10 08:17:00,
2013-01-10 02:23:00,44.7,40.8,30.15,ESE,114,4.0,19.0,86,0.00,,-RA,0.01,VWS V14.01,2013-01-10 08:23:00,
2013-01-10 02:28:00,44.4,41.1,30.15,East,84,6.0,19.0,88,0.00,,-RA,0.01,VWS V14.01,2013-01-10 08:28:00,
2013-01-10 02:30:00,44.0,41.0,30.12,SE,146,2.0,16.0,89,0.01,,CLR,0.02,VWS V14.01,2013-01-10 08:30:00,
2013-01-10 02:33:00,44.2,40.9,30.14,East,101,8.0,13.0,88,0.00,,-RA,0.01,VWS V14.01,2013-01-10 08:33:00,
2013-01-10 02:38:00,44.1,41.1,30.14,East,98,1.0,13.0,89,0.01,,-RA,0.02,VWS V14.01,2013-01-10 08:38:00,
2013-01-10 02:43:00,44.0,41.0,30.14,East,82,8.0,13.0,89,0.01,,-RA,0.02,VWS V14.01,2013-01-10 08:43:00,
2013-01-10 02:48:00,44.0,41.0,30.14,ESE,111,7.0,13.0,89,0.01,,-RA,0.02,VWS V14.01,2013-01-10 08:48:00,
2013-01-10 02:53:00,44.0,41.0,30.14,ENE,69,2.0,13.0,89,0.01,,-RA,0.02,VWS V14.01,2013-01-10 08:53:00,
2013-01-10 02:59:00,44.0,41.0,30.14,East,80,2.0,13.0,89,0.01,,-RA,0.02,VWS V14.01,2013-01-10 08:59:00,
2013-01-10 03:00:00,43.8,41.1,30.09,ESE,122,7.0,11.0,90,0.01,,CLR,0.02,VWS V14.01,2013-01-10 09:00:00,
2013-01-10 03:04:00,44.0,41.0,30.13,ESE,103,7.0,11.0,89,0.01,,-RA,0.02,VWS V14.01,2013-01-10 09:04:00,
2013-01-10 03:09:00,44.1,41.1,30.13,ESE,106,4.0,12.0,89,0.01,,-RA,0.02,VWS V14.01,2013-01-10 09:09:00,
2013-01-10 03:14:00,44.1,41.1,30.13,East,88,5.0,15.0,89,0.01,,-RA,0.02,VWS V14.01,2013-01-10 09:14:00,
2013-01-10 03:19:00,44.0,41.0,30.12,East,98,6.0,15.0,89,0.01,,-RA,0.02,VWS V14.01,2013-01-10 09:19:00,
2013-01-10 03:24:00,44.0,41.0,30.11,ESE,104,7.0,16.0,89,0.01,,-RA,0.02,VWS V14.01,2013-01-10 09:24:00,
2013-01-10 03:29:00,44.0,41.0,30.12,ESE,103,4.0,16.0,89,0.01,,-RA,0.02,VWS V14.01,2013-01-10 09:29:00,
2013-01-10 03:30:00,43.4,41.5,30.07,East,80,2.0,11.0,93,0.00,,CLR,0.02,VWS V14.01,2013-01-10 09:30:00,
2013-01-10 03:34:00,44.0,41.0,30.12,ESE,112,2.0,9.0,89,0.01,,-RA,0.02,VWS V14.01,2013-01-10 09:34:00,
2013-01-10 03:40:00,43.9,40.9,30.11,East,94,8.0,10.0,89,0.01,,-RA,0.02,VWS V14.01,2013-01-10 09:40:00,
2013-01-10 03:45:00,43.9,40.9,30.11,East,101,2.0,11.0,89,0.01,,OVC014,0.02,VWS V14.01,2013-01-10 09:45:00,
2013-01-10 03:50:00,43.9,40.9,30.10,East,93,1.0,11.0,89,0.01,,OVC014,0.02,VWS V14.01,2013-01-10 09:50:00,
2013-01-10 03:55:00,43.8,41.1,30.09,East,92,5.0,11.0,90,0.01,,OVC014,0.02,VWS V14.01,2013-01-10 09:55:00,
2013-01-10 04:00:00,43.8,41.1,30.09,SSE,147,4.0,7.0,90,0.00,,OVC014,0.02,VWS V14.01,2013-01-10 10:00:00,
2013-01-10 04:05:00,43.8,41.1,30.09,ESE,103,1.0,10.0,90,0.00,,OVC014,0.02,VWS V14.01,2013-01-10 10:05:00,
2013-01-10 04:10:00,43.8,41.1,30.09,East,95,6.0,11.0,90,0.00,,OVC014,0.02,VWS V14.01,2013-01-10 10:10:00,
2013-01-10 04:15:00,43.8,41.3,30.08,East,97,3.0,11.0,91,0.00,,OVC014,0.02,VWS V14.01,2013-01-10 10:15:00,
2013-01-10 04:21:00,43.6,41.4,30.08,ESE,107,2.0,11.0,92,0.00,,OVC014,0.02,VWS V14.01,2013-01-10 10:21:00,
2013-01-10 04:26:00,43.5,41.3,30.08,East,95,7.0,11.0,92,0.00,,OVC014,0.02,VWS V14.01,2013-01-10 10:26:00,
2013-01-10 04:30:00,43.3,42.0,30.06,East,86,3.0,9.0,95,0.01,,CLR,0.03,VWS V14.01,2013-01-10 10:30:00,
2013-01-10 04:31:00,43.4,41.5,30.07,East,83,8.0,8.0,93,0.00,,OVC014,0.02,VWS V14.01,2013-01-10 10:31:00,
2013-01-10 04:36:00,43.4,41.5,30.06,East,82,1.0,11.0,93,0.00,,OVC014,0.02,VWS V14.01,2013-01-10 10:36:00,
2013-01-10 04:41:00,43.3,41.4,30.07,ESE,111,1.0,12.0,93,0.00,,RA,0.02,VWS V14.01,2013-01-10 10:41:00,
2013-01-10 04:46:00,43.3,41.7,30.06,East,98,2.0,12.0,94,0.00,,RA,0.02,VWS V14.01,2013-01-10 10:46:00,
2013-01-10 04:52:00,43.3,41.7,30.06,East,80,8.0,12.0,94,0.00,,-RA,0.02,VWS V14.01,2013-01-10 10:52:00,
2013-01-10 04:57:00,43.3,41.7,30.06,ESE,117,1.0,12.0,94,0.00,,-RA,0.02,VWS V14.01,2013-01-10 10:57:00,
2013-01-10 05:00:00,43.4,42.1,30.05,East,88,3.0,10.0,95,0.01,,CLR,0.03,VWS V14.01,2013-01-10 11:00:00,
2013-01-10 05:02:00,43.2,41.6,30.06,East,85,3.0,9.0,94,0.01,,-RA,0.03,VWS V14.01,2013-01-10 11:02:00,
2013-01-10 05:07:00,43.3,41.7,30.06,ESE,109,1.0,9.0,94,0.01,,-RA,0.03,VWS V14.01,2013-01-10 11:07:00,
2013-01-10 05:12:00,43.3,42.0,30.06,ENE,78,2.0,9.0,95,0.01,,-RA,0.03,VWS V14.01,2013-01-10 11:12:00,
2013-01-10 05:17:00,43.3,42.0,30.06,East,86,1.0,9.0,95,0.01,,-RA,0.03,VWS V14.01,2013-01-10 11:17:00,
2013-01-10 05:22:00,43.3,42.0,30.05,ESE,123,3.0,9.0,95,0.01,,-RA,0.03,VWS V14.01,2013-01-10 11:22:00,
2013-01-10 05:28:00,43.3,42.0,30.06,East,101,0.0,9.0,95,0.01,,-RA,0.03,VWS V14.01,2013-01-10 11:28:00,
2013-01-10 05:30:00,43.6,42.5,30.05,ESE,112,2.0,9.0,96,0.00,,CLR,0.03,VWS V14.01,2013-01-10 11:30:00,
2013-01-10 05:33:00,43.3,42.0,30.06,ENE,77,1.0,5.0,95,0.01,,-RA,0.03,VWS V14.01,2013-01-10 11:33:00,
2013-01-10 05:38:00,43.3,42.0,30.05,ENE,76,7.0,7.0,95,0.01,,-RA,0.03,VWS V14.01,2013-01-10 11:38:00,
2013-01-10 05:43:00,43.3,42.0,30.06,East,92,3.0,8.0,95,0.01,,,0.03,VWS V14.01,2013-01-10 11:43:00,
2013-01-10 05:48:00,43.3,42.0,30.06,East,80,0.0,8.0,95,0.01,,,0.03,VWS V14.01,2013-01-10 11:48:00,
2013-01-10 05:53:00,43.4,42.1,30.05,ESE,103,9.0,10.0,95,0.01,,,0.03,VWS V14.01,2013-01-10 11:53:00,
2013-01-10 05:58:00,43.4,42.1,30.04,ENE,65,1.0,10.0,95,0.01,,,0.03,VWS V14.01,2013-01-10 11:58:00,
2013-01-10 06:00:00,43.8,42.7,30.04,East,86,3.0,7.0,96,0.01,,CLR,0.04,VWS V14.01,2013-01-10 12:00:00,
2013-01-10 06:03:00,43.4,42.1,30.05,East,82,5.0,7.0,95,0.00,,,0.03,VWS V14.01,2013-01-10 12:03:00,
2013-01-10 06:08:00,43.4,42.1,30.05,East,80,0.0,9.0,95,0.00,,,0.03,VWS V14.01,2013-01-10 12:08:00,
2013-01-10 06:14:00,43.5,42.2,30.04,ESE,103,2.0,9.0,95,0.00,,,0.03,VWS V14.01,2013-01-10 12:14:00,
2013-01-10 06:19:00,43.5,42.4,30.05,East,90,0.0,9.0,96,0.00,,,0.03,VWS V14.01,2013-01-10 12:19:00,
2013-01-10 06:24:00,43.5,42.4,30.05,East,95,3.0,9.0,96,0.00,,,0.03,VWS V14.01,2013-01-10 12:24:00,
2013-01-10 06:29:00,43.6,42.5,30.05,East,94,1.0,9.0,96,0.00,,,0.03,VWS V14.01,2013-01-10 12:29:00,
2013-01-10 06:30:00,44.1,43.0,30.04,NE,55,1.0,8.0,96,0.01,,CLR,0.04,VWS V14.01,2013-01-10 12:30:00,
2013-01-10 06:34:00,43.6,42.5,30.05,East,91,2.0,6.0,96,0.00,,,0.03,VWS V14.01,2013-01-10 12:34:00,
2013-01-10 06:39:00,43.6,42.5,30.05,East,94,1.0,6.0,96,0.00,,,0.03,VWS V14.01,2013-01-10 12:39:00,
2013-01-10 06:44:00,43.7,42.6,30.05,ESE,107,3.0,6.0,96,0.01,,,0.04,VWS V14.01,2013-01-10 12:44:00,
2013-01-10 06:49:00,43.7,42.6,30.04,ESE,104,2.0,7.0,96,0.01,,,0.04,VWS V14.01,2013-01-10 12:49:00,
2013-01-10 06:55:00,43.8,42.7,30.04,East,86,2.0,7.0,96,0.01,,,0.04,VWS V14.01,2013-01-10 12:55:00,
2013-01-10 07:00:00,43.8,42.7,30.04,ESE,102,1.0,7.0,96,0.01,,,0.04,VWS V14.01,2013-01-10 13:00:00,
2013-01-10 07:05:00,43.8,42.7,30.04,East,82,2.0,7.0,96,0.01,,,0.04,VWS V14.01,2013-01-10 13:05:00,
2013-01-10 07:10:00,43.9,42.8,30.04,East,95,2.0,8.0,96,0.01,,,0.04,VWS V14.01,2013-01-10 13:10:00,
2013-01-10 07:15:00,44.0,42.9,30.04,East,84,5.0,8.0,96,0.01,,,0.04,VWS V14.01,2013-01-10 13:15:00,
2013-01-10 07:20:00,44.0,42.9,30.04,ESE,107,2.0,8.0,96,0.01,,,0.04,VWS V14.01,2013-01-10 13:20:00,
2013-01-10 07:25:00,44.1,43.0,30.04,ESE,117,2.0,8.0,96,0.01,,,0.04,VWS V14.01,2013-01-10 13:25:00,
2013-01-10 07:30:00,44.1,43.0,30.04,ENE,76,4.0,4.0,96,0.01,,,0.04,VWS V14.01,2013-01-10 13:30:00,
2013-01-10 07:35:00,44.2,43.1,30.04,ESE,108,2.0,8.0,96,0.01,,,0.04,VWS V14.01,2013-01-10 13:35:00,
2013-01-10 07:40:00,44.2,43.1,30.04,ESE,107,1.0,9.0,96,0.01,,,0.04,VWS V14.01,2013-01-10 13:40:00,
2013-01-10 07:45:00,44.2,43.1,30.03,East,98,3.0,9.0,96,0.01,,,0.04,VWS V14.01,2013-01-10 13:45:00,
2013-01-10 07:51:00,44.3,43.2,30.03,East,92,5.0,9.0,96,0.01,,,0.04,VWS V14.01,2013-01-10 13:51:00,
2013-01-10 07:56:00,44.3,43.2,30.03,ESE,109,0.0,9.0,96,0.01,,,0.04,VWS V14.01,2013-01-10 13:56:00,
2013-01-10 08:00:00,45.1,44.3,30.01,ESE,113,4.0,9.0,97,0.00,,CLR,0.04,VWS V14.01,2013-01-10 14:00:00,
2013-01-10 08:01:00,44.4,43.3,30.03,East,79,0.0,3.0,96,0.00,,,0.04,VWS V14.01,2013-01-10 14:01:00,
2013-01-10 08:06:00,44.4,43.3,30.03,ESE,116,2.0,5.0,96,0.00,,,0.04,VWS V14.01,2013-01-10 14:06:00,
2013-01-10 08:11:00,44.5,43.4,30.03,ESE,112,3.0,6.0,96,0.00,,,0.04,VWS V14.01,2013-01-10 14:11:00,
2013-01-10 08:16:00,44.5,43.4,30.03,ESE,116,2.0,6.0,96,0.00,,,0.04,VWS V14.01,2013-01-10 14:16:00,
2013-01-10 08:21:00,44.6,43.8,30.02,SE,132,5.0,6.0,97,0.00,,,0.04,VWS V14.01,2013-01-10 14:21:00,
2013-01-10 08:26:00,44.6,43.8,30.02,ESE,109,3.0,7.0,97,0.00,,,0.04,VWS V14.01,2013-01-10 14:26:00,
2013-01-10 08:30:00,45.5,44.7,29.98,ENE,77,2.0,9.0,97,0.01,,CLR,0.05,VWS V14.01,2013-01-10 14:30:00,
2013-01-10 08:31:00,44.7,43.9,30.01,East,101,5.0,5.0,97,0.00,,,0.04,VWS V14.01,2013-01-10 14:31:00,
2013-01-10 08:37:00,44.7,43.9,30.01,East,84,5.0,8.0,97,0.00,,,0.04,VWS V14.01,2013-01-10 14:37:00,
2013-01-10 08:42:00,44.8,44.0,30.01,East,83,2.0,8.0,97,0.00,,,0.04,VWS V14.01,2013-01-10 14:42:00,
2013-01-10 08:47:00,44.9,44.1,30.01,East,96,3.0,8.0,97,0.00,,,0.04,VWS V14.01,2013-01-10 14:47:00,
2013-01-10 08:52:00,45.0,44.2,30.01,ESE,117,2.0,8.0,97,0.00,,,0.04,VWS V14.01,2013-01-10 14:52:00,
2013-01-10 08:57:00,45.1,44.3,30.01,ESE,104,7.0,9.0,97,0.00,,,0.04,VWS V14.01,2013-01-10 14:57:00,
2013-01-10 09:00:00,45.9,45.1,29.98,East,83,5.0,10.0,97,0.01,,CLR,0.05,VWS V14.01,2013-01-10 15:00:00,
2013-01-10 09:02:00,45.1,44.3,30.01,East,87,7.0,8.0,97,0.00,,-RA,0.04,VWS V14.01,2013-01-10 15:02:00,
2013-01-10 09:07:00,45.2,44.4,30.01,ESE,116,3.0,9.0,97,0.01,,-RA,0.05,VWS V14.01,2013-01-10 15:07:00,
2013-01-10 09:12:00,45.3,44.5,30.00,ESE,107,2.0,9.0,97,0.01,,-RA,0.05,VWS V14.01,2013-01-10 15:12:00,
2013-01-10 09:18:00,45.3,44.5,30.00,East,97,6.0,9.0,97,0.01,,-RA,0.05,VWS V14.01,2013-01-10 15:18:00,
2013-01-10 09:23:00,45.4,44.6,29.99,East,97,7.0,9.0,97,0.01,,-RA,0.05,VWS V14.01,2013-01-10 15:23:00,
2013-01-10 09:28:00,45.5,44.7,29.98,East,100,5.0,9.0,97,0.01,,-RA,0.05,VWS V14.01,2013-01-10 15:28:00,
2013-01-10 09:30:00,46.5,45.7,29.97,East,91,0.0,8.0,97,0.01,,CLR,0.05,VWS V14.01,2013-01-10 15:30:00,
2013-01-10 09:33:00,45.6,44.8,29.98,East,83,5.0,10.0,97,0.01,,-RA,0.05,VWS V14.01,2013-01-10 15:33:00,
2013-01-10 09:38:00,45.6,44.8,29.98,ESE,107,2.0,10.0,97,0.01,,-RA,0.05,VWS V14.01,2013-01-10 15:38:00,
2013-01-10 09:43:00,45.7,44.9,29.98,ESE,103,4.0,10.0,97,0.01,,,0.05,VWS V14.01,2013-01-10 15:43:00,
2013-01-10 09:48:00,45.8,45.0,29.98,ENE,74,3.0,10.0,97,0.01,,,0.05,VWS V14.01,2013-01-10 15:48:00,
2013-01-10 09:54:00,45.8,45.0,29.98,ESE,112,2.0,10.0,97,0.01,,,0.05,VWS V14.01,2013-01-10 15:54:00,
2013-01-10 09:59:00,45.9,45.1,29.98,NE,47,3.0,10.0,97,0.01,,,0.05,VWS V14.01,2013-01-10 15:59:00,
2013-01-10 10:00:00,46.6,45.8,29.95,East,97,0.0,6.0,97,0.01,,CLR,0.06,VWS V14.01,2013-01-10 16:00:00,
2013-01-10 10:04:00,46.0,45.2,29.98,ESE,113,1.0,5.0,97,0.01,,,0.05,VWS V14.01,2013-01-10 16:04:00,
2013-01-10 10:09:00,46.0,45.2,29.98,East,85,5.0,5.0,97,0.01,,,0.05,VWS V14.01,2013-01-10 16:09:00,
2013-01-10 10:14:00,46.1,45.3,29.98,ESE,111,2.0,7.0,97,0.01,,,0.05,VWS V14.01,2013-01-10 16:14:00,
2013-01-10 10:19:00,46.3,45.5,29.97,East,79,1.0,7.0,97,0.01,,,0.05,VWS V14.01,2013-01-10 16:19:00,
2013-01-10 10:24:00,46.4,45.6,29.97,ENE,70,4.0,8.0,97,0.01,,,0.05,VWS V14.01,2013-01-10 16:24:00,
2013-01-10 10:29:00,46.5,45.7,29.97,ESE,110,3.0,8.0,97,0.01,,,0.05,VWS V14.01,2013-01-10 16:29:00,
2013-01-10 10:30:00,46.7,45.9,29.93,ENE,65,0.0,4.0,97,0.01,,CLR,0.06,VWS V14.01,2013-01-10 16:30:00,
2013-01-10 10:35:00,46.5,45.7,29.96,East,80,3.0,6.0,97,0.00,,,0.05,VWS V14.01,2013-01-10 16:35:00,
2013-01-10 10:40:00,46.5,45.7,29.96,East,96,0.0,6.0,97,0.00,,,0.05,VWS V14.01,2013-01-10 16:40:00,
2013-01-10 10:45:00,46.5,45.7,29.96,East,94,0.0,6.0,97,0.00,,,0.05,VWS V14.01,2013-01-10 16:45:00,
2013-01-10 10:50:00,46.5,45.7,29.97,ESE,109,0.0,6.0,97,0.00,,,0.05,VWS V14.01,2013-01-10 16:50:00,
2013-01-10 10:55:00,46.6,45.8,29.96,East,97,0.0,6.0,97,0.00,,,0.05,VWS V14.01,2013-01-10 16:55:00,
2013-01-10 11:00:00,46.6,45.8,29.95,East,97,0.0,0.0,97,0.01,,,0.06,VWS V14.01,2013-01-10 17:00:00,
2013-01-10 11:05:00,46.6,45.8,29.95,East,97,0.0,1.0,97,0.01,,,0.06,VWS V14.01,2013-01-10 17:05:00,
2013-01-10 11:10:00,46.7,45.9,29.94,ENE,64,3.0,3.0,97,0.01,,,0.06,VWS V14.01,2013-01-10 17:10:00,
2013-01-10 11:15:00,46.6,45.8,29.94,East,92,0.0,3.0,97,0.01,,,0.06,VWS V14.01,2013-01-10 17:15:00,
2013-01-10 11:21:00,46.6,45.8,29.94,ENE,71,1.0,3.0,97,0.01,,,0.06,VWS V14.01,2013-01-10 17:21:00,
2013-01-10 11:26:00,46.7,45.9,29.93,ENE,65,1.0,4.0,97,0.01,,,0.06,VWS V14.01,2013-01-10 17:26:00,
2013-01-10 11:30:00,47.7,46.9,29.88,ESE,107,1.0,7.0,97,0.00,,CLR,0.06,VWS V14.01,2013-01-10 17:30:00,
2013-01-10 11:31:00,46.7,45.9,29.93,ENE,65,0.0,0.0,97,0.01,,,0.06,VWS V14.01,2013-01-10 17:31:00,
2013-01-10 11:36:00,46.8,46.0,29.93,ENE,67,3.0,3.0,97,0.01,,,0.06,VWS V14.01,2013-01-10 17:36:00,
2013-01-10 11:41:00,46.8,46.0,29.92,ENE,75,2.0,7.0,97,0.01,,-RA,0.06,VWS V14.01,2013-01-10 17:41:00,
2013-01-10 11:46:00,46.9,46.1,29.92,ENE,71,1.0,7.0,97,0.01,,-RA,0.06,VWS V14.01,2013-01-10 17:46:00,
2013-01-10 11:51:00,46.9,46.1,29.92,ENE,78,0.0,7.0,97,0.01,,-RA,0.06,VWS V14.01,2013-01-10 17:51:00,
2013-01-10 11:56:00,47.0,46.2,29.92,NE,38,0.0,7.0,97,0.01,,-RA,0.06,VWS V14.01,2013-01-10 17:56:00,
2013-01-10 12:00:00,48.2,47.7,29.84,NE,53,0.0,5.0,98,0.00,,CLR,0.06,VWS V14.01,2013-01-10 18:00:00,
2013-01-10 12:01:00,47.2,46.4,29.90,NE,40,2.0,4.0,97,0.00,,,0.06,VWS V14.01,2013-01-10 18:01:00,
2013-01-10 12:06:00,47.3,46.5,29.90,ENE,67,3.0,4.0,97,0.00,,,0.06,VWS V14.01,2013-01-10 18:06:00,
2013-01-10 12:12:00,47.4,46.9,29.90,NE,47,1.0,7.0,98,0.00,,,0.06,VWS V14.01,2013-01-10 18:12:00,
2013-01-10 12:17:00,47.5,47.0,29.89,ENE,57,0.0,7.0,98,0.00,,,0.06,VWS V14.01,2013-01-10 18:17:00,
2013-01-10 12:22:00,47.6,47.1,29.88,NE,45,2.0,7.0,98,0.00,,,0.06,VWS V14.01,2013-01-10 18:22:00,
2013-01-10 12:27:00,47.6,47.1,29.88,ENE,74,0.0,7.0,98,0.00,,,0.06,VWS V14.01,2013-01-10 18:27:00,
2013-01-10 12:30:00,49.4,48.9,29.82,ENE,63,2.0,5.0,98,0.00,,CLR,0.06,VWS V14.01,2013-01-10 18:30:00,
2013-01-10 12:32:00,47.7,46.9,29.88,ENE,78,0.0,2.0,97,0.00,,,0.06,VWS V14.01,2013-01-10 18:32:00,
2013-01-10 12:37:00,47.8,47.0,29.87,East,82,3.0,3.0,97,0.00,,,0.06,VWS V14.01,2013-01-10 18:37:00,
2013-01-10 12:42:00,47.8,47.0,29.86,East,99,3.0,5.0,97,0.00,,,0.06,VWS V14.01,2013-01-10 18:42:00,
2013-01-10 12:47:00,47.8,47.0,29.85,East,99,0.0,5.0,97,0.00,,,0.06,VWS V14.01,2013-01-10 18:47:00,
2013-01-10 12:52:00,47.9,47.1,29.85,East,88,2.0,5.0,97,0.00,,,0.06,VWS V14.01,2013-01-10 18:52:00,
2013-01-10 12:58:00,48.1,47.6,29.84,ESE,105,1.0,5.0,98,0.00,,,0.06,VWS V14.01,2013-01-10 18:58:00,
2013-01-10 13:00:00,50.0,49.5,29.80,SE,126,1.0,6.0,98,0.00,,CLR,0.06,VWS V14.01,2013-01-10 19:00:00,
2013-01-10 13:03:00,48.4,47.9,29.84,East,95,0.0,2.0,98,0.00,,,0.06,VWS V14.01,2013-01-10 19:03:00,
2013-01-10 13:08:00,48.7,48.2,29.84,East,90,3.0,5.0,98,0.00,,,0.06,VWS V14.01,2013-01-10 19:08:00,
2013-01-10 13:13:00,48.9,48.4,29.83,ESE,109,4.0,5.0,98,0.00,,,0.06,VWS V14.01,2013-01-10 19:13:00,
2013-01-10 13:18:00,49.1,48.6,29.82,ENE,75,2.0,5.0,98,0.00,,,0.06,VWS V14.01,2013-01-10 19:18:00,
2013-01-10 13:23:00,49.2,48.7,29.82,ESE,111,0.0,5.0,98,0.00,,,0.06,VWS V14.01,2013-01-10 19:23:00,
2013-01-10 13:28:00,49.3,48.8,29.82,ENE,67,0.0,5.0,98,0.00,,,0.06,VWS V14.01,2013-01-10 19:28:00,
2013-01-10 13:30:00,50.1,49.6,29.78,East,82,0.0,6.0,98,0.00,,CLR,0.06,VWS V14.01,2013-01-10 19:30:00,
2013-01-10 13:33:00,49.4,48.9,29.81,ESE,118,2.0,5.0,98,0.00,,,0.06,VWS V14.01,2013-01-10 19:33:00,
2013-01-10 13:39:00,49.6,49.1,29.81,SE,126,2.0,5.0,98,0.00,,,0.06,VWS V14.01,2013-01-10 19:39:00,
2013-01-10 13:44:00,49.7,49.2,29.81,SE,135,1.0,5.0,98,0.00,,,0.06,VWS V14.01,2013-01-10 19:44:00,
2013-01-10 13:49:00,49.8,49.3,29.81,ESE,107,1.0,5.0,98,0.00,,,0.06,VWS V14.01,2013-01-10 19:49:00,
2013-01-10 13:54:00,49.9,49.4,29.80,ESE,107,1.0,5.0,98,0.00,,,0.06,VWS V14.01,2013-01-10 19:54:00,
2013-01-10 13:59:00,50.0,49.5,29.80,ESE,121,4.0,6.0,98,0.00,,,0.06,VWS V14.01,2013-01-10 19:59:00,
2013-01-10 14:00:00,50.5,50.0,29.78,ESE,112,2.0,5.0,98,0.00,,CLR,0.06,VWS V14.01,2013-01-10 20:00:00,
2013-01-10 14:04:00,50.1,49.6,29.80,ESE,111,5.0,6.0,98,0.00,,,0.06,VWS V14.01,2013-01-10 20:04:00,
2013-01-10 14:09:00,50.1,49.6,29.79,ESE,113,1.0,6.0,98,0.00,,,0.06,VWS V14.01,2013-01-10 20:09:00,
2013-01-10 14:14:00,50.1,49.6,29.79,East,90,2.0,6.0,98,0.00,,,0.06,VWS V14.01,2013-01-10 20:14:00,
2013-01-10 14:19:00,50.1,49.6,29.78,ESE,106,0.0,6.0,98,0.00,,,0.06,VWS V14.01,2013-01-10 20:19:00,
2013-01-10 14:25:00,50.1,49.6,29.78,East,100,0.0,6.0,98,0.00,,,0.06,VWS V14.01,2013-01-10 20:25:00,
2013-01-10 14:30:00,50.1,49.6,29.78,East,82,0.0,6.0,98,0.00,,,0.06,VWS V14.01,2013-01-10 20:30:00,
2013-01-10 14:35:00,50.2,49.7,29.77,East,97,0.0,3.0,98,0.00,,,0.06,VWS V14.01,2013-01-10 20:35:00,
2013-01-10 14:40:00,50.3,49.8,29.77,ENE,71,0.0,5.0,98,0.00,,,0.06,VWS V14.01,2013-01-10 20:40:00,
2013-01-10 14:45:00,50.4,49.9,29.77,ESE,109,1.0,5.0,98,0.00,,,0.06,VWS V14.01,2013-01-10 20:45:00,
2013-01-10 14:50:00,50.4,49.9,29.78,East,87,0.0,5.0,98,0.00,,,0.06,VWS V14.01,2013-01-10 20:50:00,
2013-01-10 14:55:00,50.5,50.0,29.78,ESE,108,0.0,5.0,98,0.00,,,0.06,VWS V14.01,2013-01-10 20:55:00,
2013-01-10 15:00:00,50.5,50.0,29.78,ESE,111,0.0,2.0,98,0.00,,,0.06,VWS V14.01,2013-01-10 21:00:00,
2013-01-10 15:05:00,50.6,50.1,29.78,ESE,106,1.0,3.0,98,0.00,,,0.06,VWS V14.01,2013-01-10 21:05:00,
2013-01-10 15:10:00,50.6,50.1,29.78,ESE,115,1.0,4.0,98,0.00,,,0.06,VWS V14.01,2013-01-10 21:10:00,
2013-01-10 15:16:00,50.7,50.2,29.79,ESE,121,0.0,4.0,98,0.00,,,0.06,VWS V14.01,2013-01-10 21:16:00,
2013-01-10 15:21:00,50.8,50.3,29.79,ESE,123,0.0,4.0,98,0.00,,,0.06,VWS V14.01,2013-01-10 21:21:00,
2013-01-10 15:26:00,50.8,50.3,29.79,SE,127,1.0,4.0,98,0.00,,,0.06,VWS V14.01,2013-01-10 21:26:00,
2013-01-10 15:30:00,51.3,50.8,29.75,ESE,116,0.0,3.0,98,0.00,,CLR,0.06,VWS V14.01,2013-01-10 21:30:00,
2013-01-10 15:31:00,50.7,50.2,29.78,ESE,123,0.0,1.0,98,0.00,,,0.06,VWS V14.01,2013-01-10 21:31:00,
2013-01-10 15:36:00,50.7,50.2,29.78,ESE,115,1.0,2.0,98,0.00,,,0.06,VWS V14.01,2013-01-10 21:36:00,
2013-01-10 15:41:00,50.7,50.2,29.78,ESE,115,0.0,2.0,98,0.00,,,0.06,VWS V14.01,2013-01-10 21:41:00,
2013-01-10 15:46:00,50.7,50.2,29.77,ESE,115,0.0,2.0,98,0.00,,,0.06,VWS V14.01,2013-01-10 21:46:00,
2013-01-10 15:51:00,50.7,50.2,29.76,ESE,114,1.0,2.0,98,0.00,,,0.06,VWS V14.01,2013-01-10 21:51:00,
2013-01-10 15:56:00,50.8,50.3,29.76,ESE,106,0.0,3.0,98,0.00,,,0.06,VWS V14.01,2013-01-10 21:56:00,
2013-01-10 16:00:00,51.7,51.2,29.75,ESE,118,1.0,2.0,98,0.00,,CLR,0.06,VWS V14.01,2013-01-10 22:00:00,
2013-01-10 16:01:00,50.8,50.3,29.75,East,86,0.0,3.0,98,0.00,,,0.06,VWS V14.01,2013-01-10 22:01:00,
2013-01-10 16:07:00,50.9,50.4,29.75,ESE,108,1.0,3.0,98,0.00,,,0.06,VWS V14.01,2013-01-10 22:07:00,
2013-01-10 16:12:00,51.0,50.5,29.76,SE,126,0.0,3.0,98,0.00,,,0.06,VWS V14.01,2013-01-10 22:12:00,
2013-01-10 16:17:00,51.1,50.6,29.75,ESE,113,2.0,3.0,98,0.00,,,0.06,VWS V14.01,2013-01-10 22:17:00,
2013-01-10 16:22:00,51.2,50.7,29.76,ESE,117,0.0,3.0,98,0.00,,,0.06,VWS V14.01,2013-01-10 22:22:00,
2013-01-10 16:27:00,51.3,50.8,29.75,ESE,113,0.0,3.0,98,0.00,,,0.06,VWS V14.01,2013-01-10 22:27:00,
2013-01-10 16:30:00,51.7,51.2,29.74,ENE,63,0.0,3.0,98,0.00,,CLR,0.06,VWS V14.01,2013-01-10 22:30:00,
2013-01-10 16:32:00,51.3,50.8,29.75,ESE,116,0.0,0.0,98,0.00,,,0.06,VWS V14.01,2013-01-10 22:32:00,
2013-01-10 16:37:00,51.4,50.9,29.75,ESE,116,0.0,0.0,98,0.00,,,0.06,VWS V14.01,2013-01-10 22:37:00,
2013-01-10 16:42:00,51.4,50.9,29.75,ESE,116,0.0,0.0,98,0.00,,,0.06,VWS V14.01,2013-01-10 22:42:00,
2013-01-10 16:47:00,51.5,51.0,29.75,ESE,117,0.0,2.0,98,0.00,,,0.06,VWS V14.01,2013-01-10 22:47:00,
2013-01-10 16:52:00,51.5,51.0,29.75,ESE,118,0.0,2.0,98,0.00,,,0.06,VWS V14.01,2013-01-10 22:52:00,
2013-01-10 16:57:00,51.6,51.1,29.75,ESE,118,0.0,2.0,98,0.00,,,0.06,VWS V14.01,2013-01-10 22:57:00,
2013-01-10 17:00:00,51.2,50.7,29.74,ENE,63,0.0,0.0,98,0.00,,CLR,0.06,VWS V14.01,2013-01-10 23:00:00,
2013-01-10 17:02:00,51.7,51.2,29.75,ESE,118,0.0,1.0,98,0.00,,,0.06,VWS V14.01,2013-01-10 23:02:00,
2013-01-10 17:09:00,51.7,51.2,29.75,ESE,118,0.0,0.0,98,0.00,,,0.06,VWS V14.01,2013-01-10 23:09:00,
2013-01-10 17:14:00,51.7,51.2,29.75,ESE,117,0.0,3.0,98,0.00,,,0.06,VWS V14.01,2013-01-10 23:14:00,
2013-01-10 17:19:00,51.8,51.3,29.75,East,98,0.0,3.0,98,0.00,,,0.06,VWS V14.01,2013-01-10 23:19:00,
2013-01-10 17:24:00,51.8,51.3,29.74,East,98,0.0,3.0,98,0.00,,,0.06,VWS V14.01,2013-01-10 23:24:00,
2013-01-10 17:30:00,51.7,51.2,29.74,ENE,63,0.0,3.0,98,0.00,,,0.06,VWS V14.01,2013-01-10 23:30:00,
2013-01-10 17:35:00,51.7,51.2,29.74,ENE,63,0.0,0.0,98,0.00,,,0.06,VWS V14.01,2013-01-10 23:35:00,
2013-01-10 17:40:00,51.5,51.0,29.74,ENE,63,0.0,0.0,98,0.00,,,0.06,VWS V14.01,2013-01-10 23:40:00,
2013-01-10 17:45:00,51.4,50.9,29.74,ENE,63,0.0,0.0,98,0.00,,,0.06,VWS V14.01,2013-01-10 23:45:00,
2013-01-10 17:50:00,51.3,50.8,29.74,ENE,63,0.0,0.0,98,0.00,,,0.06,VWS V14.01,2013-01-10 23:50:00,
2013-01-10 17:56:00,51.3,50.8,29.74,ENE,63,0.0,0.0,98,0.00,,,0.06,VWS V14.01,2013-01-10 23:56:00,
2013-01-10 18:00:00,51.2,50.7,29.73,ENE,75,0.0,0.0,98,0.00,,CLR,0.06,VWS V14.01,2013-01-11 00:00:00,
2013-01-10 18:01:00,51.2,50.7,29.74,ENE,63,0.0,0.0,98,0.00,,,0.06,VWS V14.01,2013-01-11 00:01:00,
2013-01-10 18:06:00,51.1,50.6,29.74,ENE,63,0.0,0.0,98,0.00,,,0.06,VWS V14.01,2013-01-11 00:06:00,
2013-01-10 18:11:00,51.0,50.5,29.73,ENE,75,0.0,0.0,98,0.00,,,0.06,VWS V14.01,2013-01-11 00:11:00,
2013-01-10 18:16:00,51.0,50.5,29.73,ENE,75,0.0,0.0,98,0.00,,,0.06,VWS V14.01,2013-01-11 00:16:00,
2013-01-10 18:21:00,50.9,50.4,29.73,ENE,75,0.0,0.0,98,0.00,,,0.06,VWS V14.01,2013-01-11 00:21:00,
2013-01-10 18:27:00,50.9,50.4,29.71,ENE,75,0.0,0.0,98,0.00,,,0.06,VWS V14.01,2013-01-11 00:27:00,
2013-01-10 18:30:00,53.1,52.5,29.74,WSW,248,1.0,4.0,98,0.01,,CLR,0.07,VWS V14.01,2013-01-11 00:30:00,
2013-01-10 18:32:00,50.8,50.3,29.72,ENE,75,0.0,0.0,98,0.00,,,0.06,VWS V14.01,2013-01-11 00:32:00,
2013-01-10 18:37:00,50.7,50.2,29.72,ENE,75,0.0,0.0,98,0.00,,,0.06,VWS V14.01,2013-01-11 00:37:00,
2013-01-10 18:42:00,50.8,50.3,29.72,ENE,75,0.0,0.0,98,0.00,,-RA,0.06,VWS V14.01,2013-01-11 00:42:00,
2013-01-10 18:47:00,50.8,50.3,29.73,ENE,75,0.0,0.0,98,0.00,,-RA,0.06,VWS V14.01,2013-01-11 00:47:00,
2013-01-10 18:53:00,50.9,50.4,29.73,ENE,75,0.0,0.0,98,0.00,,,0.06,VWS V14.01,2013-01-11 00:53:00,
2013-01-10 18:58:00,51.1,50.6,29.73,ENE,75,0.0,0.0,98,0.00,,,0.06,VWS V14.01,2013-01-11 00:58:00,
2013-01-10 19:00:00,54.3,53.8,29.75,West,274,1.0,5.0,98,0.02,,CLR,0.08,VWS V14.01,2013-01-11 01:00:00,
2013-01-10 19:03:00,51.2,50.7,29.73,ENE,75,0.0,0.0,98,0.00,,,0.06,VWS V14.01,2013-01-11 01:03:00,
2013-01-10 19:08:00,51.3,50.8,29.73,ENE,75,0.0,0.0,98,0.00,,,0.06,VWS V14.01,2013-01-11 01:08:00,
2013-01-10 19:13:00,51.4,50.9,29.74,ENE,75,0.0,0.0,98,0.00,,,0.06,VWS V14.01,2013-01-11 01:13:00,
2013-01-10 19:18:00,51.7,51.2,29.74,SE,140,0.0,0.0,98,0.00,,,0.06,VWS V14.01,2013-01-11 01:18:00,
2013-01-10 19:23:00,52.3,51.8,29.75,WNW,287,0.0,2.0,98,0.01,,,0.07,VWS V14.01,2013-01-11 01:23:00,
2013-01-10 19:29:00,52.9,52.3,29.74,SW,216,1.0,4.0,98,0.01,,,0.07,VWS V14.01,2013-01-11 01:29:00,
2013-01-10 19:30:00,52.8,52.2,29.75,SW,231,1.0,4.0,98,0.02,,CLR,0.08,VWS V14.01,2013-01-11 01:30:00,
2013-01-10 19:34:00,53.5,53.0,29.74,West,259,0.0,1.0,98,0.01,,,0.07,VWS V14.01,2013-01-11 01:34:00,
2013-01-10 19:39:00,53.7,53.2,29.74,West,270,0.0,2.0,98,0.01,,,0.07,VWS V14.01,2013-01-11 01:39:00,
2013-01-10 19:44:00,53.6,53.0,29.74,West,268,0.0,2.0,98,0.02,,-RA,0.08,VWS V14.01,2013-01-11 01:44:00,
2013-01-10 19:49:00,53.8,53.2,29.74,WSW,246,2.0,3.0,98,0.02,,-RA,0.08,VWS V14.01,2013-01-11 01:49:00,
2013-01-10 19:54:00,54.0,53.5,29.74,SSW,213,2.0,4.0,98,0.02,,,0.08,VWS V14.01,2013-01-11 01:54:00,
2013-01-10 19:59:00,54.3,53.8,29.75,West,274,2.0,5.0,98,0.02,,,0.08,VWS V14.01,2013-01-11 01:59:00,
2013-01-10 20:00:00,52.7,52.2,29.75,West,259,0.0,2.0,98,0.01,,CLR,0.08,VWS V14.01,2013-01-11 02:00:00,
2013-01-10 20:05:00,54.2,53.7,29.75,West,274,0.0,1.0,98,0.02,,,0.08,VWS V14.01,2013-01-11 02:05:00,
2013-01-10 20:10:00,54.0,53.5,29.75,SW,236,0.0,3.0,98,0.02,,,0.08,VWS V14.01,2013-01-11 02:10:00,
2013-01-10 20:15:00,53.8,53.2,29.75,SW,219,0.0,3.0,98,0.02,,,0.08,VWS V14.01,2013-01-11 02:15:00,
2013-01-10 20:20:00,53.5,53.0,29.75,South,180,0.0,3.0,98,0.02,,,0.08,VWS V14.01,2013-01-11 02:20:00,
2013-01-10 20:25:00,53.1,52.5,29.75,South,180,0.0,3.0,98,0.02,,,0.08,VWS V14.01,2013-01-11 02:25:00,
2013-01-10 20:30:00,52.8,52.2,29.75,SW,231,0.0,1.0,98,0.01,,,0.08,VWS V14.01,2013-01-11 02:30:00,
2013-01-10 20:35:00,52.9,52.3,29.75,SW,231,0.0,1.0,98,0.01,,,0.08,VWS V14.01,2013-01-11 02:35:00,
2013-01-10 20:41:00,52.7,52.2,29.76,SW,230,0.0,1.0,98,0.01,,,0.08,VWS V14.01,2013-01-11 02:41:00,
2013-01-10 20:46:00,52.8,52.2,29.75,West,267,0.0,2.0,98,0.01,,,0.08,VWS V14.01,2013-01-11 02:46:00,
2013-01-10 20:51:00,52.7,52.2,29.75,West,259,0.0,2.0,98,0.01,,,0.08,VWS V14.01,2013-01-11 02:51:00,
2013-01-10 20:56:00,52.7,52.2,29.75,West,259,0.0,2.0,98,0.01,,,0.08,VWS V14.01,2013-01-11 02:56:00,
2013-01-10 21:00:00,51.9,51.3,29.76,WNW,298,1.0,8.0,98,0.01,,CLR,0.09,VWS V14.01,2013-01-11 03:00:00,
2013-01-10 21:01:00,52.6,52.0,29.75,West,259,0.0,0.0,98,0.00,,,0.08,VWS V14.01,2013-01-11 03:01:00,
2013-01-10 21:06:00,52.4,51.8,29.75,West,259,0.0,0.0,98,0.00,,,0.08,VWS V14.01,2013-01-11 03:06:00,
2013-01-10 21:12:00,52.2,51.7,29.75,West,259,0.0,0.0,98,0.00,,,0.08,VWS V14.01,2013-01-11 03:12:00,
2013-01-10 21:17:00,52.2,51.7,29.75,West,259,0.0,0.0,98,0.00,,,0.08,VWS V14.01,2013-01-11 03:17:00,
2013-01-10 21:22:00,52.1,51.5,29.74,West,259,0.0,0.0,98,0.00,,,0.08,VWS V14.01,2013-01-11 03:22:00,
2013-01-10 21:27:00,51.9,51.4,29.74,West,259,0.0,0.0,98,0.00,,,0.08,VWS V14.01,2013-01-11 03:27:00,
2013-01-10 21:30:00,50.6,50.1,29.76,WNW,300,0.0,4.0,98,0.02,,CLR,0.10,VWS V14.01,2013-01-11 03:30:00,
2013-01-10 21:32:00,51.8,51.3,29.74,West,259,0.0,0.0,98,0.00,,,0.08,VWS V14.01,2013-01-11 03:32:00,
2013-01-10 21:37:00,51.7,51.2,29.74,West,259,0.0,0.0,98,0.00,,,0.08,VWS V14.01,2013-01-11 03:37:00,
2013-01-10 21:43:00,51.7,51.2,29.76,West,261,4.0,5.0,98,0.00,,,0.08,VWS V14.01,2013-01-11 03:43:00,
2013-01-10 21:48:00,52.0,51.5,29.77,SW,227,2.0,8.0,98,0.01,,,0.09,VWS V14.01,2013-01-11 03:48:00,
2013-01-10 21:53:00,52.0,51.5,29.76,West,269,1.0,8.0,98,0.01,, +RA,0.09,VWS V14.01,2013-01-11 03:53:00,
2013-01-10 21:58:00,51.9,51.4,29.76,WNW,294,2.0,8.0,98,0.01,, +RA,0.09,VWS V14.01,2013-01-11 03:58:00,
2013-01-10 22:00:00,49.9,49.4,29.76,SW,216,2.0,10.0,98,0.03,,CLR,0.11,VWS V14.01,2013-01-11 04:00:00,
2013-01-10 22:03:00,51.8,51.3,29.76,WSW,255,0.0,3.0,98,0.01,, +RA,0.09,VWS V14.01,2013-01-11 04:03:00,
2013-01-10 22:08:00,51.6,51.1,29.76,West,259,0.0,3.0,98,0.02,, +RA,0.10,VWS V14.01,2013-01-11 04:08:00,
2013-01-10 22:13:00,51.4,50.9,29.76,WSW,242,0.0,4.0,98,0.02,, +RA,0.10,VWS V14.01,2013-01-11 04:13:00,
2013-01-10 22:18:00,51.1,50.6,29.76,West,277,0.0,4.0,98,0.02,, +RA,0.10,VWS V14.01,2013-01-11 04:18:00,
2013-01-10 22:24:00,50.9,50.4,29.76,WNW,300,0.0,4.0,98,0.02,, +RA,0.10,VWS V14.01,2013-01-11 04:24:00,
2013-01-10 22:29:00,50.6,50.1,29.76,WNW,300,0.0,4.0,98,0.02,, +RA,0.10,VWS V14.01,2013-01-11 04:29:00,
2013-01-10 22:30:00,49.7,49.2,29.77,SW,224,5.0,8.0,98,0.03,,CLR,0.12,VWS V14.01,2013-01-11 04:30:00,
2013-01-10 22:34:00,50.4,49.9,29.76,WNW,300,0.0,0.0,98,0.02,, +RA,0.10,VWS V14.01,2013-01-11 04:34:00,
2013-01-10 22:39:00,50.1,49.6,29.76,WNW,300,0.0,0.0,98,0.02,, +RA,0.10,VWS V14.01,2013-01-11 04:39:00,
2013-01-10 22:44:00,49.7,48.9,29.76,SSW,211,0.0,2.0,97,0.02,,,0.10,VWS V14.01,2013-01-11 04:44:00,
2013-01-10 22:49:00,49.4,48.6,29.76,WNW,283,0.0,4.0,97,0.03,,,0.11,VWS V14.01,2013-01-11 04:49:00,
2013-01-10 22:54:00,49.4,48.6,29.77,WSW,246,9.0,10.0,97,0.03,,,0.11,VWS V14.01,2013-01-11 04:54:00,
2013-01-10 22:59:00,49.8,49.3,29.76,WSW,254,1.0,10.0,98,0.03,,,0.11,VWS V14.01,2013-01-11 04:59:00,
2013-01-10 23:00:00,49.5,48.4,29.77,WSW,243,0.0,10.0,96,0.02,,CLR,0.12,VWS V14.01,2013-01-11 05:00:00,
2013-01-10 23:01:00,49.9,49.4,29.76,SW,225,1.0,2.0,98,0.02,,,0.11,VWS V14.01,2013-01-11 05:01:00,
2013-01-10 23:03:00,49.9,49.4,29.76,SW,236,2.0,3.0,98,0.02,,,0.11,VWS V14.01,2013-01-11 05:03:00,
2013-01-10 23:06:00,49.9,49.4,29.76,SW,224,0.0,7.0,98,0.02,,,0.11,VWS V14.01,2013-01-11 05:06:00,
2013-01-10 23:11:00,49.9,49.4,29.76,SW,220,4.0,7.0,98,0.02,,,0.11,VWS V14.01,2013-01-11 05:11:00,
2013-01-10 23:16:00,49.9,49.4,29.76,SW,228,3.0,7.0,98,0.02,,,0.11,VWS V14.01,2013-01-11 05:16:00,
2013-01-10 23:22:00,49.9,49.4,29.77,WSW,250,4.0,7.0,98,0.03,,,0.12,VWS V14.01,2013-01-11 05:22:00,
2013-01-10 23:27:00,49.8,49.3,29.77,WSW,254,0.0,7.0,98,0.03,,,0.12,VWS V14.01,2013-01-11 05:27:00,
2013-01-10 23:30:00,49.0,47.6,29.77,SW,232,3.0,7.0,95,0.01,,CLR,0.00,VWS V14.01,2013-01-11 05:30:00,
2013-01-10 23:32:00,49.7,49.2,29.77,SSW,194,4.0,7.0,98,0.02,,,0.12,VWS V14.01,2013-01-11 05:32:00,
2013-01-10 23:37:00,49.7,49.2,29.77,SSW,206,0.0,9.0,98,0.02,,,0.12,VWS V14.01,2013-01-11 05:37:00,
2013-01-10 23:42:00,49.8,49.3,29.77,WSW,238,4.0,10.0,98,0.02,,,0.12,VWS V14.01,2013-01-11 05:42:00,
2013-01-10 23:47:00,49.8,49.0,29.77,SSW,199,0.0,10.0,97,0.02,,,0.12,VWS V14.01,2013-01-11 05:47:00,
2013-01-10 23:52:00,49.7,48.9,29.77,WSW,240,2.0,10.0,97,0.02,,,0.12,VWS V14.01,2013-01-11 05:52:00,
2013-01-10 23:57:00,49.5,48.4,29.77,WSW,258,0.0,10.0,96,0.02,,,0.12,VWS V14.01,2013-01-11 05:57:00,